OBJECT C (52799 NORAD) Tracking and Keplerian Element Data

This shows tracking and keplerian element data for the satellite.

Feedback or suggestion? Click here.




ElementValue
Catalog52799
NameOBJECT C
Epoch Orbit22
Epoch Day157.5117323
Epoch Year2022
RAAN284.0323
Inclination41.3295
Eccentricity0.0199247
Argument of Perigee125.708
Mean Anonmoly333.043
Mean Motion15.82158031
Decay Rate-2.296E-05
L11 52799U 22060C 22157.51173230 -.00002296 72694-5 00000+0 0 9993
L22 52799 41.3295 284.0323 0199247 125.7080 333.0430 15.82158031 229

Live tracking and technical data element details for OBJECT C (NORAD 52799). OBJECT C can be tracked NOW for your location showing map with azimuth and elevation plus other details from your city location.

Track the satellite on the map from your city or location and see movement details for azimuth, elevation, latitude, longitude, range, height, and movement on the map or in text.







IsCatalogInMostPopularTable: catalog: 52799, numindb: 2
Update: records affected: 1



GetName: 52799 OBJECT C

Hit Count: updated at: Thu, 18 Aug 2022 19:08:08 GMT